Simultaneous Nadir Overpasses (SNOs) Predictions

Prediction of SNOs between NOAA-19 and NPP Satellite Orbit:

Table of predicted SNOs for the next 14.0 days since TLE Epoch: 11/11/2017
Index Date (NOAA-19) Time (NOAA-19) Lat,Lon (NOAA-19) SZA (NOAA-19 ) Date (NPP) Time (NPP) Lat,Lon (NPP) SZA (NPP ) Distance(km) Time Diff (sec)
1 11/17/2017 06:54:57 -80.74,-151.81 77.74 11/17/2017 06:56:06 -80.72,-151.67 77.79 2.90 69
2 11/17/2017 07:46:03 80.73, 15.25 102.29 11/17/2017 07:46:52 80.74, 15.28 102.27 1.49 49
3 11/17/2017 08:36:59 -80.73,-177.53 77.70 11/17/2017 08:37:37 -80.74,-177.43 77.72 2.36 38
4 11/17/2017 09:28:04 80.73, -10.11 102.30 11/17/2017 09:28:22 80.75, -10.14 102.30 1.23 18
5 11/17/2017 10:19:00 -80.73, 157.11 77.70 11/17/2017 10:19:07 -80.75, 157.15 77.70 1.57 7
6 11/17/2017 11:10:05 80.74, -35.47 102.30 11/17/2017 11:09:52 80.75, -35.56 102.32 1.75 13
7 11/17/2017 12:01:01 -80.74, 131.75 77.69 11/17/2017 12:00:37 -80.75, 131.74 77.67 1.19 24
8 11/17/2017 12:52:06 80.74, -60.83 102.31 11/17/2017 12:51:22 80.75, -60.97 102.35 2.62 44
9 11/17/2017 13:43:02 -80.74, 106.39 77.69 11/17/2017 13:42:07 -80.75, 106.32 77.65 1.54 55




NCC Satellite Simultaneous Nadir Overpasses (SNOs) Prediction Service
